Simultaneous Nadir Overpasses (SNOs) Predictions

Prediction of SNOs between NOAA-20 and METOP-B Satellite Orbit:

Table of predicted SNOs for the next 14.0 days since TLE Epoch: 9/9/2019
Index Date (NOAA-20) Time (NOAA-20) Lat,Lon (NOAA-20) SZA (NOAA-20 ) Date (METOP-B) Time (METOP-B) Lat,Lon (METOP-B) SZA (METOP-B ) Distance(km) Time Diff (sec)
1 09/22/2019 12:59:52 73.41, -24.64 73.18 09/22/2019 13:01:00 73.36, -22.26 73.05 75.83 68
2 09/22/2019 13:50:35 -73.35, 142.82 106.88 09/22/2019 13:51:44 -73.29, 144.89 107.02 66.28 69
3 09/22/2019 14:41:16 73.11, -49.35 72.89 09/22/2019 14:42:27 73.09, -48.20 72.82 37.34 71
4 09/22/2019 15:31:59 -73.05, 118.10 107.17 09/22/2019 15:33:11 -73.01, 118.96 107.25 28.00 72
5 09/22/2019 16:22:40 72.82, -74.09 72.60 09/22/2019 16:23:54 72.82, -74.13 72.59 1.17 74
6 09/22/2019 17:13:25 -72.85, 93.15 107.36 09/22/2019 17:14:36 -72.84, 93.25 107.38 3.59 71
7 09/22/2019 18:04:10 72.82, -99.47 72.63 09/22/2019 18:05:16 72.79, -99.51 72.59 3.13 66
8 09/22/2019 18:54:54 -72.81, 67.87 107.38 09/22/2019 18:55:58 -72.82, 67.86 107.37 1.43 64
9 09/22/2019 19:45:40 72.82,-124.85 72.66 09/22/2019 19:46:37 72.82,-124.79 72.65 2.11 57
10 09/22/2019 20:36:24 -72.81, 42.49 107.35 09/22/2019 20:37:20 -72.80, 42.48 107.37 1.47 56
11 09/22/2019 21:27:09 72.78,-150.13 72.64 09/22/2019 21:27:59 72.80,-150.18 72.65 3.05 50
12 09/22/2019 22:17:54 -72.81, 17.11 107.32 09/22/2019 22:18:41 -72.82, 17.20 107.31 3.32 47
13 09/22/2019 23:08:39 72.78,-175.51 72.67 09/22/2019 23:09:21 72.78,-175.56 72.66 1.58 42
14 09/22/2019 23:59:24 -72.82, -8.28 107.29 09/23/2019 00:00:03 -72.80, -8.19 107.31 3.31 39
15 09/23/2019 00:50:09 72.78, 159.10 72.70 09/23/2019 00:50:42 72.81, 159.16 72.71 3.14 33
16 09/23/2019 01:40:53 -72.77, -33.55 107.31 09/23/2019 01:41:25 -72.78, -33.57 107.30 1.40 32
17 09/23/2019 02:31:39 72.79, 133.72 72.73 09/23/2019 02:32:04 72.78, 133.77 72.72 1.75 25




NCC Satellite Simultaneous Nadir Overpasses (SNOs) Prediction Service
